Weather History for Jacksonville, FL

Change the Weather History Date:

Sunday, January 1, 2012

  Actual Average Record
Temperature  
Mean Temperature 60 °F 53 °F  
Max Temperature 72 °F 65 °F 81 °F (1967)
Min Temperature 48 °F 41 °F 21 °F (1918)
Degree Days  
Heating Degree Days 5 12  
Month to date heating degree days 5 12  
Since 1 July heating degree days 386 508  
Cooling Degree Days 0 0  
Month to date cooling degree days 0 0  
Year to date cooling degree days 0 0  
Growing Degree Days 10 (Base 50)    
Moisture  
Dew Point 53 °F    
Average Humidity 79    
Maximum Humidity 100    
Minimum Humidity 57    
Precipitation  
Precipitation 0.00 in 0.09 in 1.20 in (1881)
Month to date precipitation 0.00 0.09  
Year to date precipitation 0.00 0.09  
Snow  
Snow 0.00 in 0.00 in 0.00 in (2002)
Month to date snowfall 0.0 0.0  
Since 1 July snowfall 0.0 T  
Snow Depth 0.00 in    
Sea Level Pressure  
Sea Level Pressure 30.20 in    
Wind  
Wind Speed 5 mph (SW)    
Max Wind Speed 15 mph    
Max Gust Speed 20 mph    
Visibility 6 miles    
Events Fog    
T = Trace of Precipitation, MM = Missing Value Source: NWS Daily Summary

Daily Weather History Graph

Daily Weather History Graph

Search for Another Location

Airport:

Trip Planner

Search our weather history database for the weather conditions in past years. The results will help you decide how hot, cold, wet, or windy it might be!

Date:

Astronomy

Jan. 01, 2012 Rise Set
Actual Time 7:23 AM EST 5:36 PM EST
Civil Twilight 6:57 AM EST 6:03 PM EST
Nautical Twilight 6:27 AM EST 6:33 PM EST
Astronomical Twilight 5:58 AM EST 7:02 PM EST
Moon 12:10 PM EST (1/1) 12:33 AM EST (1/1)
Length of Visible Light 11h 05m
Length of Day
10h 13m
First Quarter, 54% of the Moon is Illuminated
Jan 1
First Quarter
Jan 9
Full
Jan 16
Last Quarter
Jan 23
New
Jan 30
First Quarter

Hourly Weather History & Observations

Time (EST) Temp. Dew Point Humidity Pressure Visibility Wind Dir Wind Speed Gust Speed Precip Events Conditions
12:56 AM 52.0 °F 50.0 °F 93% 30.20 in 7.0 mi Calm Calm - N/A   Clear
1:56 AM 50.0 °F 48.0 °F 93% 30.19 in 6.0 mi Calm Calm - N/A   Clear
2:40 AM 48.2 °F 48.2 °F 100% 30.19 in 4.0 mi Calm Calm - N/A   Partly Cloudy
2:56 AM 48.9 °F 48.0 °F 97% 30.19 in 4.0 mi Calm Calm - N/A   Partly Cloudy
3:34 AM 48.2 °F 46.4 °F 93% 30.19 in 2.5 mi Calm Calm - N/A   Mostly Cloudy
3:40 AM 48.2 °F 46.4 °F 93% 30.19 in 1.0 mi Calm Calm - N/A   Mist
3:44 AM 48.2 °F 46.4 °F 93% 30.19 in 0.2 mi Calm Calm - N/A Fog Fog
3:56 AM 50.0 °F 48.0 °F 93% 30.20 in 0.2 mi West 3.5 mph - N/A Fog Fog
4:56 AM 50.0 °F 48.9 °F 96% 30.20 in 0.2 mi West 5.8 mph - N/A Fog Fog
5:56 AM 50.0 °F 48.9 °F 96% 30.21 in 0.2 mi Calm Calm - N/A Fog Fog
6:22 AM 48.2 °F 48.2 °F 100% 30.21 in 0.5 mi Calm Calm - N/A Fog Fog
6:56 AM 48.0 °F 48.0 °F 100% 30.23 in 0.2 mi Calm Calm - N/A Fog Fog
7:56 AM 50.0 °F 48.9 °F 96% 30.25 in 0.2 mi Calm Calm - N/A Fog Fog
8:56 AM 52.0 °F 52.0 °F 100% 30.27 in 0.2 mi SSW 3.5 mph - N/A Fog Fog
9:43 AM 55.4 °F 55.4 °F 100% 30.27 in 0.5 mi Calm Calm - N/A Fog Fog
9:56 AM 55.9 °F 55.9 °F 100% 30.28 in 0.5 mi Calm Calm - N/A Fog Fog
10:12 AM 57.2 °F 57.2 °F 100% 30.28 in 1.5 mi WSW 3.5 mph - N/A   Mostly Cloudy
10:20 AM 57.2 °F 57.2 °F 100% 30.27 in 3.0 mi Calm Calm - N/A   Mostly Cloudy
10:29 AM 59.0 °F 57.2 °F 94% 30.27 in 8.0 mi Calm Calm - N/A   Mostly Cloudy
10:56 AM 63.0 °F 59.0 °F 87% 30.27 in 10.0 mi Calm Calm - N/A   Mostly Cloudy
11:56 AM 70.0 °F 57.0 °F 63% 30.23 in 10.0 mi WSW 10.4 mph 18.4 mph N/A   Mostly Cloudy
12:56 PM 71.1 °F 55.9 °F 59% 30.19 in 10.0 mi WSW 11.5 mph - N/A   Overcast
1:56 PM 71.1 °F 55.0 °F 57% 30.15 in 10.0 mi WSW 10.4 mph - N/A   Overcast
2:56 PM 70.0 °F 57.9 °F 65% 30.15 in 10.0 mi SW 9.2 mph - N/A   Mostly Cloudy
3:56 PM 71.1 °F 55.0 °F 57% 30.14 in 10.0 mi WSW 9.2 mph - N/A   Mostly Cloudy
4:56 PM 68.0 °F 55.9 °F 65% 30.14 in 10.0 mi SW 6.9 mph - N/A   Mostly Cloudy
5:56 PM 61.0 °F 55.9 °F 83% 30.15 in 10.0 mi SW 3.5 mph - N/A   Mostly Cloudy
6:56 PM 60.1 °F 55.9 °F 86% 30.15 in 10.0 mi South 4.6 mph - N/A   Mostly Cloudy
7:56 PM 61.0 °F 57.0 °F 87% 30.13 in 10.0 mi SSW 6.9 mph - N/A   Scattered Clouds
8:56 PM 62.1 °F 57.0 °F 84% 30.13 in 10.0 mi SW 9.2 mph - N/A   Partly Cloudy
9:56 PM 62.1 °F 57.9 °F 86% 30.14 in 10.0 mi SW 6.9 mph - N/A   Partly Cloudy
10:56 PM 61.0 °F 57.9 °F 90% 30.13 in 10.0 mi SW 5.8 mph - N/A   Partly Cloudy
11:56 PM 62.1 °F 59.0 °F 90% 30.11 in 10.0 mi SW 9.2 mph - N/A   Scattered Clouds